Regional Weather Roundup
Issued by NWS

Home | Current Version | Previous Version | Text Only | Print | Product List | Glossary On
Versions: 1 2 3 4 5 6 7 8 9 10 11 12 13 14 15 16 17 18 19 20 21 22 23 24 25 26 27
000
ASUS46 KSEW 311410
RWRWA

WASHINGTON REGIONAL WEATHER ROUNDUP
NATIONAL WEATHER SERVICE SEATTLE WA
700 AM PDT TUE MAY 31 2016

NOTE:"FAIR" INDICATES FEW OR NO CLOUDS BELOW 12,000 FEET WITH NO
SIGNIFICANT WEATHER AND/OR OBSTRUCTIONS TO VISIBILITY.

WAZ505-507>509-311500-
SEATTLE, TACOMA, EVERETT, AND VICINITY

CITY           SKY/WX    TMP DP  RH WIND       PRES   REMARKS
EVERETT        MOSUNNY   54  46  74 N7        30.14F
BOEING FIELD   PTSUNNY   58  49  72 CALM      30.14S
RENTON         PTSUNNY   54  50  86 CALM      30.13S
SEATAC AIRPORT PTSUNNY   57  47  69 NE6       30.14S
JBLM-MCCHORD   PTSUNNY   50  48  92 CALM      30.13S
PUYALLUP       FAIR      50  50 100 CALM      30.13S
BREMERTON      PTSUNNY   54  45  71 E5        30.15S
JBLM-FT LEWIS  PTSUNNY   49  45  85 E1        30.12F
TACOMA NARROWS PTSUNNY   54  48  80 VRB5      30.13F
$$

WAZ001-503-506-510-514-515-311500-
NORTH INTERIOR

CITY           SKY/WX    TMP DP  RH WIND       PRES   REMARKS
BELLINGHAM     PTSUNNY   50  48  93 CALM      30.14S
FRIDAY HARBOR  PTSUNNY   53  49  86 CALM      30.15S
EASTSOUND      PTSUNNY   54  48  82 MISG      30.13S
PORT ANGELES   PTSUNNY   53  47  79 CALM      30.14S
EDIZ HOOK      FAIR      53  45  73 CALM      30.14S
PORT TOWNSEND  FAIR      52  48  87 CALM      30.15S
NAS WHIDBEY    PTSUNNY   54  52  93 VRB3      30.18S
ARLINGTON      MOSUNNY   48  39  71 CALM      30.16S
BURLINGTON     SUNNY     54  50  87 CALM      30.15S
$$

WAZ020-022-039-040-504-511-512-311500-
SOUTHWEST INTERIOR

CITY           SKY/WX    TMP DP  RH WIND       PRES   REMARKS
SHELTON        MOSUNNY   48  45  89 CALM      30.12S
OLYMPIA        MOSUNNY   49  43  80 CALM      30.13S
CHEHALIS       FAIR      50  46  87 CALM      30.12F
KELSO          MOSUNNY   52  43  71 CALM      30.13S
VANCOUVER      MOSUNNY   56  44  64 CALM      30.07F
SCAPPOOSE, OR  MOSUNNY   53  48  83 CALM      30.07S
PORTLAND, OR   PTSUNNY   57  44  62 CALM      30.08S
$$

WAZ021-516-517-311500-
WASHINGTON COAST

CITY           SKY/WX    TMP DP  RH WIND       PRES   REMARKS
FORKS          CLOUDY    49  46  90 CALM      30.12S
HOQUIAM        PTSUNNY   52  49  89 E6        30.11S FOG
ASTORIA, OR    PTSUNNY   52  50  93 CALM      30.07S
$$

WAZ019-023-024-040-518-519-311500-
CASCADE MOUNTAINS AND COLUMBIA GORGE

CITY           SKY/WX    TMP DP  RH WIND       PRES   REMARKS
STAMPEDE PASS  SUNNY     49  37  63 VRB5      30.19R
TROUTDALE, OR  MOSUNNY   56  48  74 NW3       30.07S
THE DALLES, OR SUNNY     52  40  63 CALM      30.14R
$$

WAZ026-027-041>044-520-521-311500-
EAST SLOPES

CITY           SKY/WX    TMP DP  RH WIND       PRES   REMARKS
OMAK           SUNNY     56  38  50 NW10      30.18S
WENATCHEE      SUNNY     56  40  55 NW9       30.17R
ELLENSBURG     SUNNY     50  40  68 E5        30.17R
YAKIMA         SUNNY     56  39  53 W7        30.16R
$$

WAZ028-034-035-311500-
COLUMBIA BASIN

CITY           SKY/WX    TMP DP  RH WIND       PRES   REMARKS
EPHRATA        SUNNY     56  36  47 N6        30.15S
MOSES LAKE     MOSUNNY   51  35  54 N7        30.16R
PASCO          SUNNY     50  44  80 CALM      30.16R
HERMISTON, OR  SUNNY     51  40  65 S3        30.14R
$$

WAZ036>038-311500-
NORTHEAST WASHINGTON

CITY           SKY/WX    TMP DP  RH WIND       PRES   REMARKS
SPOKANE GEIGER MOSUNNY   53  38  56 NE6       30.18S
SPOKANE FELTS  SUNNY     51  41  68 CALM      30.20R
FAIRCHILD AFB  SUNNY     52  39  61 E3        30.18R
COEURDALENE,ID SUNNY     50  41  71 E7        30.18R
DEER PARK      SUNNY     52  40  63 MISG      30.19S
$$

WAZ029>033-311500-
SOUTHEAST WASHINGTON

CITY           SKY/WX    TMP DP  RH WIND       PRES   REMARKS
PULLMAN        SUNNY     51  38  60 E6        30.20R
LEWISTON, ID   SUNNY     51  39  63 CALM      30.19R
WALLA WALLA    SUNNY     56  40  55 CALM      30.14R
PENDLETON, OR  SUNNY     53  39  59 E7        30.14R
$$




USA.gov is the U.S. government's official web portal to all federal, state and local government web resources and services.